カタログに戻る

GORIZONT 5

運用中通信GEO
NORAD 13092·PAYLOAD·🇷🇺 Russia

打ち上げ Mar 15, 1982 から Baikonur Cosmodrome

Loading…

TLE

最新Source: Space-Track

元期: Sep 14, 2026, 03:49 UTC

1 13092U 82020A   26257.15920380  .00000015  00000-0  00000-0 0  9993
2 13092   8.1519 300.4592 0033834 261.3907 268.2537  0.98530578122477

AllMySatでGORIZONT 5をリアルタイム追跡

Download on the App Store